Location: Casilda
(33.0440°S, 61.1680°W)
Time: 04:33:28
(UTC-03:00)

ISS - Pass Details

Date: 11 November 2018
Orbit: 401 x 408 km, 51.6° (Epoch: 20 November)

Event Time Altitude Azimuth Distance (km) Brightness Sun altitude
Rises 20:29:55 0° 240° (WSW) 2,349 2.4 -10.2°
Reaches altitude 10° 20:32:18 10° 255° (WSW) 1,479 0.4 -10.6°
Maximum altitude 20:34:58 22° 309° (NW) 934 -1.7 -11.1°
Drops below altitude 10° 20:37:36 10° 2° (N) 1,459 -1.3 -11.6°
Enters shadow 20:38:08 - 7° (N) 1,642 -1.1 -11.7°
